Weather History for KNFL - November, 2012

Change the Weather History Date:

Wednesday, November 21, 2012

  Actual Average Record
Temperature  
Mean Temperature 54 °F -  
Max Temperature 66 °F 51 °F 71 °F (1998)
Min Temperature 36 °F 25 °F 5 °F (1929)
Degree Days  
Heating Degree Days 12    
Growing Degree Days 4 (Base 50)    
Moisture  
Dew Point 28 °F    
Average Humidity 40    
Maximum Humidity 67    
Minimum Humidity 22    
Precipitation  
Precipitation 0.00 in - - ()
Sea Level Pressure  
Sea Level Pressure 29.94 in    
Wind  
Wind Speed 10 mph (SSW)    
Max Wind Speed 21 mph    
Max Gust Speed 29 mph    
Visibility 10 miles    
Events      
Averages and records for this station are not official NWS values.
T = Trace of Precipitation, MM = Missing Value Source: NWS Daily Summary

Daily Weather History Graph

Daily Weather History Graph

Search for Another Location

Airport or City:

Trip Planner

Search our weather history database for the weather conditions in past years. The results will help you decide how hot, cold, wet, or windy it might be!

Date:

Astronomy

Nov. 21, 2012 Rise Set
Actual Time 6:45 AM PST 4:35 PM PST
Civil Twilight 6:16 AM PST 5:04 PM PST
Nautical Twilight 5:43 AM PST 5:37 PM PST
Astronomical Twilight 5:11 AM PST 6:09 PM PST
Moon 12:52 PM PST (11/21) 12:11 AM PST (11/21)
Length of Visible Light 10h 47m
Length of Day
9h 49m
Waxing Gibbous, 63% of the Moon is Illuminated
Nov 21
Waxing Gibbous
Nov 28
Full
Dec 6
Last Quarter
Dec 13
New
Dec 19
First Quarter

Hourly Weather History & Observations

Time (PST) Temp. Windchill Dew Point Humidity Pressure Visibility Wind Dir Wind Speed Gust Speed Precip Events Conditions
12:56 AM 44.1 °F 39.0 °F 30.0 °F 58% 29.87 in 10.0 mi SE 9.2 mph - N/A   Mostly Cloudy
1:56 AM 48.0 °F - 32.0 °F 54% 29.87 in 10.0 mi South 11.5 mph - N/A   Mostly Cloudy
2:56 AM 52.0 °F - 30.0 °F 43% 29.86 in 10.0 mi South 11.5 mph - N/A   Overcast
3:56 AM 52.0 °F - 28.9 °F 41% 29.85 in 10.0 mi South 16.1 mph - N/A   Overcast
4:56 AM 52.0 °F - 28.9 °F 41% 29.85 in 10.0 mi South 9.2 mph - N/A   Overcast
5:56 AM 50.0 °F - 28.0 °F 43% 29.86 in 10.0 mi SSE 8.1 mph - N/A   Scattered Clouds
6:13 AM 50.0 °F - 28.4 °F 43% 29.94 in 10.0 mi SE 9.2 mph - N/A   Mostly Cloudy
6:56 AM 53.1 °F - 27.0 °F 37% 29.87 in 10.0 mi South 13.8 mph - N/A   Overcast
7:56 AM 54.0 °F - 28.9 °F 38% 29.88 in 10.0 mi SE 11.5 mph - N/A   Mostly Cloudy
8:56 AM 57.0 °F - 28.9 °F 34% 29.90 in 10.0 mi SSE 11.5 mph - N/A   Mostly Cloudy
9:56 AM 59.0 °F - 30.0 °F 33% 29.91 in 10.0 mi SSE 4.6 mph - N/A   Mostly Cloudy
10:56 AM 61.0 °F - 33.1 °F 35% 29.92 in 10.0 mi Calm Calm - N/A   Mostly Cloudy
11:56 AM 63.0 °F - 34.0 °F 34% 29.89 in 10.0 mi ENE 9.2 mph - N/A   Mostly Cloudy
12:56 PM 66.0 °F - 26.1 °F 22% 29.90 in 10.0 mi SW 20.7 mph 28.8 mph N/A   Mostly Cloudy
1:56 PM 64.0 °F - 25.0 °F 23% 29.89 in 10.0 mi WSW 17.3 mph 26.5 mph N/A   Mostly Cloudy
2:56 PM 63.0 °F - 28.9 °F 28% 29.91 in 10.0 mi WNW 17.3 mph - N/A   Overcast
3:56 PM 60.1 °F - 30.0 °F 32% 29.94 in 10.0 mi NNW 10.4 mph - N/A   Overcast
4:56 PM 55.9 °F - 26.1 °F 32% 29.96 in 10.0 mi NW 10.4 mph 18.4 mph N/A   Overcast
5:56 PM 53.1 °F - 23.0 °F 31% 29.99 in 10.0 mi NW 8.1 mph - N/A   Scattered Clouds
6:56 PM 48.9 °F - 27.0 °F 43% 30.02 in 10.0 mi NNE 6.9 mph - N/A   Scattered Clouds
7:56 PM 48.0 °F - 28.0 °F 46% 30.06 in 10.0 mi NW 13.8 mph - N/A   Scattered Clouds
8:56 PM 43.0 °F 39.5 °F 27.0 °F 53% 30.08 in 10.0 mi NW 5.8 mph - N/A   Scattered Clouds
9:56 PM 41.0 °F 37.1 °F 27.0 °F 57% 30.12 in 10.0 mi North 5.8 mph - N/A   Scattered Clouds
11:56 PM 36.0 °F 32.1 °F 26.1 °F 67% 30.13 in 10.0 mi NW 4.6 mph - N/A   Clear